Wind_Speed
12 8 5 5 8 7 7 7 8 10 12 15 16 17 17 18 17 17 19 20 19 15 14 15 15 16 18 22 25 28 29 30 34 38 37 34 30 29 30 28 30 30 31
11 9 7 9 8 9 9 9 10 12 14 16 16 16 17 17 18 19 18 14 12 13 14 14 16 19 22 24 25 25 28 29 32 36 36 32 29 28 30 30 30 26 28
9 6 8 10 10 10 11 11 12 14 16 16 15 16 17 17 16 12 11 10 12 10 13 15 19 21 22 21 22 24 25 25 26 28 32 30 30 28 28 26 26 26 24
10 9 11 12 11 12 12 12 13 15 16 15 15 16 16 14 13 10 8 9 9 13 16 18 19 19 19 19 23 20 21 23 23 24 26 28 28 26 27 27 28 23 24
9 11 12 12 11 12 13 13 14 15 15 15 16 15 14 12 10 9 9 11 13 16 18 17 16 19 27 25 21 21 20 20 21 24 27 29 28 28 27 28 28 27 24
10 13 11 11 11 12 13 14 15 15 15 15 15 14 13 12 17 14 12 15 15 16 16 16 16 17 17 21 20 22 24 21 24 25 26 28 28 26 27 24 26 25 25
12 11 11 11 11 12 13 15 15 15 16 16 16 15 14 13 18 16 15 17 16 13 14 15 16 15 18 18 17 22 21 21 23 25 25 25 26 26 27 26 25 24 24
9 10 10 11 11 12 14 16 16 15 17 16 15 14 13 14 19 18 17 20 12 13 14 15 15 15 16 24 26 19 19 19 19 20 22 25 26 26 23 22 25 26 26
9 10 11 11 13 14 15 17 17 17 17 16 15 14 13 14 18 21 19 18 12 13 13 14 15 16 17 23 23 20 20 18 17 21 24 24 21 20 18 21 24 22 23
10 11 11 13 14 15 16 17 17 16 17 16 15 13 13 12 19 22 18 17 14 13 13 12 16 22 24 23 22 20 19 18 21 22 19 18 17 18 18 18 21 24 21
9 12 12 12 15 16 17 17 16 16 17 16 21 16 14 15 15 20 21 18 14 13 13 12 10 21 21 20 19 17 17 24 20 17 18 16 16 15 15 16 17 20 24
13 11 13 14 15 16 16 16 15 17 17 16 19 21 18 17 18 23 20 17 16 17 13 12 14 19 19 17 17 16 18 16 16 17 15 15 16 17 19 18 21 19 19
11 14 14 15 15 15 15 17 18 17 17 16 16 18 15 12 15 18 19 18 17 15 13 13 16 17 16 15 14 17 16 14 14 15 15 16 16 18 18 18 19 18 20
13 13 14 14 15 15 16 17 17 18 17 17 17 15 15 13 15 16 19 18 18 16 11 14 20 14 15 16 15 12 12 13 14 13 15 16 17 16 16 17 19 19 18
13 14 14 15 14 16 17 17 17 17 18 20 17 18 18 19 16 18 19 17 16 15 18 19 11 11 11 11 12 12 12 12 12 13 13 14 15 16 15 15 16 17 16
16 15 16 17 16 17 18 17 18 20 19 22 24 24 26 26 23 20 20 21 20 19 17 12 11 12 12 11 11 12 11 12 12 12 13 13 14 15 15 15 15 15 15
17 17 17 15 16 18 18 19 21 22 22 22 22 22 22 24 24 21 20 19 19 19 17 11 13 13 12 11 11 11 11 11 14 12 12 13 14 13 13 14 14 14 14
19 19 18 16 18 20 19 20 23 26 27 27 24 23 22 21 20 21 19 18 19 18 16 14 13 13 13 11 11 11 12 11 10 11 11 12 12 13 12 12 12 14 14
20 18 20 23 24 21 23 23 25 26 26 26 25 26 22 20 19 18 19 21 19 19 18 16 15 15 15 12 13 15 13 11 11 11 10 11 11 11 12 12 11 12 13
22 25 26 26 25 23 25 28 27 27 26 25 26 25 22 19 20 21 19 20 22 23 24 20 17 16 16 17 15 15 12 11 10 10 10 9 10 10 10 12 12 11 11
28 30 28 32 28 28 29 30 28 26 27 27 25 24 25 23 24 22 22 21 21 21 23 22 22 20 20 19 16 14 13 11 11 10 9 8 10 8 9 10 10 11 11
30 31 29 29 31 29 30 29 27 28 27 26 26 24 24 24 24 23 22 23 23 22 24 24 22 24 22 19 16 16 14 12 12 10 9 10 8 7 8 8 9 10 10
28 32 28 27 27 28 29 31 31 27 25 24 24 23 23 25 25 24 22 20 21 21 22 25 26 25 24 23 23 20 17 13 13 12 11 9 8 6 7 6 7 8 9
28 27 29 29 27 26 27 27 29 28 24 24 24 23 22 24 25 26 25 26 26 25 25 25 28 29 27 23 25 23 20 17 15 13 10 9 9 7 6 6 5 8 7
31 33 31 26 22 24 25 26 26 25 24 21 21 21 21 20 21 23 24 25 26 28 30 30 30 30 27 26 26 25 21 19 15 14 13 10 9 9 8 6 6 5 7
29 30 32 24 20 21 23 22 21 19 19 20 22 22 21 22 22 22 22 23 24 25 26 27 30 30 31 26 26 25 24 23 17 15 13 12 10 8 7 7 7 5 5
Wind_Direction
189 194 223 230 227 245 265 276 284 287 298 302 303 303 306 306 299 288 288 289 293 288 285 282 287 289 291 290 296 295 295 294 297 299 298 300 298 298 296 295 294 292 290
198 207 238 224 239 258 272 276 282 292 299 303 304 304 302 296 292 287 293 291 290 291 293 294 297 296 297 297 295 295 294 293 295 297 298 300 298 299 297 297 295 290 290
217 212 230 241 257 268 272 274 282 294 300 303 301 303 304 302 302 293 288 284 288 290 297 298 300 298 296 297 297 296 297 296 295 298 297 300 301 301 300 298 297 294 291
202 221 239 250 264 272 267 269 283 293 297 297 301 298 298 300 288 288 291 290 295 300 300 298 296 297 297 294 304 301 302 299 297 296 297 299 300 300 298 297 298 299 297
226 228 243 256 268 269 266 274 284 290 292 295 300 295 293 293 278 262 285 290 302 300 298 298 298 292 296 306 311 307 304 301 299 301 299 301 303 305 303 300 298 297 294
225 233 251 262 268 266 270 279 289 292 293 295 293 289 286 287 264 289 280 290 309 301 299 298 301 304 302 301 312 304 305 301 298 299 300 299 301 299 297 310 303 298 297
223 245 262 268 264 269 278 283 287 290 292 292 287 281 276 274 273 279 286 303 310 299 300 303 306 306 308 297 295 300 304 308 303 298 292 295 302 303 304 305 305 303 297
238 261 268 266 271 277 282 284 285 288 291 288 281 279 269 268 271 285 290 310 301 298 300 303 305 303 305 296 305 313 307 306 303 298 294 297 297 296 294 291 295 296 291
259 270 273 274 272 276 281 284 283 288 289 286 281 273 268 265 271 280 294 305 298 294 301 302 293 303 293 311 315 313 312 310 307 298 296 302 306 305 300 294 296 295 296
273 273 273 274 280 283 284 286 283 282 288 285 277 272 269 256 270 277 290 301 295 302 301 300 306 304 310 318 320 316 313 314 309 311 312 311 309 308 306 295 286 282 282
267 273 277 284 286 287 286 283 279 282 282 280 279 272 261 266 264 275 285 294 295 290 297 301 298 289 311 320 321 318 311 316 322 321 314 315 316 313 315 309 309 304 297
291 281 286 290 288 285 285 284 281 281 280 274 274 276 276 265 267 281 294 287 288 294 295 296 293 310 317 320 322 325 322 333 330 317 318 318 318 318 321 322 321 317 305
286 292 296 292 290 286 289 288 284 283 279 272 264 272 266 265 271 270 286 291 292 294 298 304 313 318 324 331 320 330 344 325 324 323 321 321 322 322 324 326 328 334 350
303 298 294 294 291 288 287 285 283 284 277 269 267 261 259 262 266 270 279 283 293 302 318 302 307 324 331 333 332 321 315 315 324 325 319 322 326 328 329 330 337 341 352
293 297 299 297 294 290 287 286 281 284 278 267 267 263 260 265 270 265 255 260 275 273 287 299 312 302 305 313 313 313 316 314 321 321 328 331 330 328 333 338 340 340 345
308 306 303 295 294 290 290 289 286 284 283 275 269 269 265 268 275 278 268 267 269 273 281 286 289 293 298 302 307 309 313 315 313 327 328 332 331 333 333 339 340 341 342
303 304 303 296 293 290 293 292 292 290 288 283 283 282 275 273 269 275 274 274 272 274 275 273 276 283 290 296 299 301 305 306 324 322 325 329 331 336 345 339 341 341 341
302 301 302 296 293 292 296 298 291 287 285 284 286 283 284 275 266 267 268 270 263 264 261 259 265 275 283 287 289 293 295 303 312 316 327 325 333 335 340 341 343 340 338
290 287 285 291 299 298 307 303 300 291 284 285 282 280 280 272 276 273 263 260 253 255 255 264 264 268 271 273 277 281 289 296 303 323 322 322 328 332 334 335 341 340 348
285 287 286 288 288 290 297 300 302 294 285 285 288 280 272 268 265 272 270 265 258 255 255 249 248 255 260 263 269 280 286 301 304 302 301 316 319 326 329 332 337 341 342
284 285 282 285 284 286 294 297 295 292 284 287 287 285 267 265 258 264 267 268 264 261 262 259 256 253 256 263 262 260 266 269 279 285 293 302 309 331 324 328 331 335 339
280 278 287 292 292 289 298 295 282 293 286 286 287 287 274 263 263 258 257 263 265 262 261 265 260 256 255 257 252 257 262 266 276 279 282 296 310 313 315 324 327 332 337
284 286 290 291 286 294 294 293 287 288 290 292 290 286 278 265 265 272 272 266 264 266 264 258 260 257 253 251 255 255 253 258 266 273 284 292 296 294 300 315 317 326 328
292 292 289 284 290 300 303 295 289 287 285 294 293 287 280 274 267 267 274 279 279 276 266 259 258 259 258 253 256 258 257 256 265 277 283 283 284 287 291 297 310 306 331
287 291 284 284 293 302 302 298 295 292 289 290 295 292 289 284 278 277 277 278 279 280 280 277 270 265 258 254 256 260 258 258 262 271 281 280 275 276 282 287 297 307 308
292 287 283 274 291 298 298 298 299 300 299 295 297 296 295 292 287 286 285 283 281 280 279 279 276 275 269 255 251 252 251 254 253 260 265 271 272 272 270 273 285 294 296
Height
1537 1537 1536 1537 1538 1539 1538 1537 1536 1534 1533 1530 1527 1524 1521 1519 1516 1512 1511 1509 1508 1507 1505 1504 1503 1502 1500 1498 1495 1492 1488 1485 1476 1470 1469 1466 1463 1460 1456 1453 1450 1446 1441
1532 1532 1531 1535 1535 1535 1534 1533 1532 1530 1528 1525 1522 1520 1517 1514 1510 1508 1506 1505 1504 1504 1501 1500 1499 1498 1496 1493 1490 1486 1483 1479 1474 1466 1462 1459 1457 1454 1449 1446 1442 1439 1435
1526 1527 1531 1532 1532 1531 1530 1528 1527 1526 1523 1520 1518 1516 1513 1511 1508 1505 1502 1500 1500 1500 1499 1497 1496 1493 1490 1488 1485 1481 1477 1473 1469 1463 1456 1455 1451 1448 1443 1440 1436 1432 1429
1524 1525 1527 1528 1527 1526 1525 1524 1523 1521 1519 1516 1513 1511 1507 1505 1504 1502 1500 1500 1496 1496 1495 1494 1491 1488 1485 1481 1478 1475 1471 1467 1464 1459 1454 1450 1447 1443 1439 1434 1430 1427 1424
1519 1521 1523 1523 1521 1521 1520 1519 1517 1515 1513 1511 1509 1507 1504 1501 1499 1497 1498 1500 1493 1492 1491 1489 1487 1483 1479 1474 1471 1469 1466 1462 1459 1455 1450 1446 1442 1438 1435 1430 1426 1422 1419
1515 1518 1519 1517 1517 1517 1516 1515 1513 1511 1509 1507 1505 1503 1501 1499 1495 1495 1494 1494 1490 1488 1487 1485 1482 1479 1476 1472 1467 1462 1460 1457 1454 1450 1446 1442 1438 1434 1430 1426 1422 1418 1415
1513 1514 1514 1513 1513 1512 1511 1510 1508 1506 1504 1502 1500 1498 1496 1493 1490 1490 1490 1489 1486 1485 1483 1480 1477 1475 1471 1467 1463 1459 1455 1452 1449 1445 1441 1437 1433 1430 1426 1422 1419 1415 1412
1510 1511 1510 1509 1508 1507 1506 1505 1503 1501 1499 1496 1495 1492 1491 1489 1486 1486 1486 1484 1483 1481 1479 1476 1473 1471 1467 1461 1456 1453 1450 1447 1445 1441 1437 1433 1429 1425 1422 1419 1415 1411 1407
1507 1507 1506 1505 1503 1501 1500 1499 1498 1496 1494 1491 1490 1488 1487 1486 1483 1482 1482 1480 1478 1476 1474 1472 1468 1465 1461 1457 1451 1447 1444 1442 1440 1436 1431 1427 1423 1420 1417 1414 1410 1407 1403
1504 1503 1502 1501 1499 1497 1496 1494 1493 1491 1489 1487 1485 1483 1482 1482 1479 1478 1477 1475 1473 1471 1470 1468 1464 1459 1456 1452 1447 1443 1440 1438 1434 1428 1425 1422 1420 1416 1413 1410 1406 1402 1399
1498 1498 1498 1496 1495 1493 1491 1489 1487 1486 1485 1483 1481 1478 1478 1476 1477 1473 1472 1471 1469 1467 1465 1463 1462 1456 1452 1448 1444 1440 1438 1433 1428 1426 1423 1419 1416 1413 1410 1407 1404 1400 1395
1494 1495 1493 1491 1490 1488 1485 1483 1481 1480 1478 1475 1474 1473 1472 1471 1471 1468 1467 1466 1464 1462 1460 1458 1455 1451 1448 1445 1441 1438 1435 1430 1428 1424 1421 1417 1414 1410 1407 1404 1400 1395 1391
1491 1490 1488 1488 1485 1482 1481 1480 1477 1475 1472 1471 1469 1467 1468 1467 1466 1463 1462 1461 1460 1457 1455 1453 1450 1447 1444 1441 1439 1436 1432 1431 1427 1423 1419 1416 1412 1409 1405 1401 1397 1392 1386
1486 1486 1484 1482 1480 1478 1476 1474 1471 1468 1467 1467 1465 1463 1463 1463 1462 1461 1458 1456 1455 1453 1451 1450 1447 1444 1442 1439 1437 1436 1433 1430 1425 1422 1418 1414 1410 1407 1403 1400 1395 1391 1386
1483 1481 1478 1477 1475 1474 1472 1470 1466 1462 1461 1461 1460 1458 1457 1456 1456 1455 1454 1454 1452 1451 1448 1446 1444 1443 1441 1439 1437 1435 1432 1429 1425 1421 1416 1413 1410 1406 1402 1399 1395 1391 1388
1478 1476 1475 1472 1471 1469 1466 1462 1460 1458 1455 1455 1455 1453 1451 1450 1449 1449 1448 1447 1447 1445 1444 1442 1442 1440 1438 1436 1434 1433 1430 1427 1423 1419 1416 1412 1409 1405 1401 1398 1395 1392 1389
1475 1472 1470 1468 1467 1465 1461 1458 1452 1452 1449 1448 1447 1445 1444 1443 1443 1442 1442 1441 1440 1439 1437 1438 1438 1436 1434 1433 1432 1430 1427 1424 1420 1418 1414 1412 1408 1404 1401 1398 1395 1392 1389
1470 1468 1466 1465 1461 1458 1454 1452 1449 1445 1443 1441 1439 1438 1437 1436 1436 1436 1436 1435 1434 1433 1433 1433 1433 1432 1431 1430 1428 1426 1424 1421 1419 1415 1413 1410 1407 1404 1401 1398 1395 1393 1390
1465 1463 1461 1459 1455 1451 1448 1445 1442 1439 1437 1435 1433 1431 1430 1429 1429 1429 1429 1429 1429 1428 1428 1428 1428 1428 1427 1425 1424 1422 1419 1417 1415 1413 1411 1409 1406 1403 1401 1398 1395 1393 1390
1461 1459 1454 1451 1449 1445 1442 1439 1436 1433 1431 1428 1426 1424 1424 1424 1422 1422 1422 1422 1422 1422 1422 1422 1423 1423 1422 1420 1419 1417 1416 1415 1413 1411 1409 1407 1405 1402 1400 1398 1395 1392 1390
1454 1451 1448 1445 1441 1439 1435 1432 1430 1427 1424 1422 1419 1418 1417 1417 1417 1417 1416 1415 1415 1415 1415 1415 1416 1416 1416 1414 1414 1413 1412 1411 1409 1408 1406 1404 1402 1400 1399 1397 1395 1392 1390
1445 1442 1439 1436 1433 1431 1428 1425 1423 1420 1418 1415 1413 1411 1410 1409 1409 1409 1409 1409 1408 1408 1408 1408 1409 1409 1409 1408 1409 1408 1407 1407 1405 1404 1403 1401 1399 1399 1398 1396 1394 1392 1390
1437 1434 1431 1429 1426 1423 1420 1417 1414 1412 1410 1408 1406 1404 1403 1402 1401 1401 1400 1401 1401 1401 1401 1401 1401 1401 1401 1402 1402 1402 1402 1402 1401 1400 1398 1397 1397 1397 1395 1394 1393 1392 1389
1429 1427 1424 1421 1418 1416 1413 1409 1406 1404 1403 1401 1399 1397 1396 1395 1394 1394 1394 1393 1393 1392 1392 1392 1392 1392 1393 1394 1394 1395 1395 1395 1395 1395 1395 1394 1394 1393 1393 1392 1391 1390 1389
1422 1419 1416 1414 1411 1409 1406 1403 1400 1398 1396 1394 1393 1391 1390 1389 1388 1387 1386 1386 1385 1384 1383 1383 1383 1383 1384 1386 1386 1387 1389 1390 1391 1391 1390 1390 1390 1390 1389 1389 1388 1387 1388
1413 1410 1407 1405 1404 1402 1399 1397 1394 1392 1390 1388 1386 1385 1384 1383 1381 1380 1379 1378 1377 1376 1375 1375 1374 1374 1375 1377 1379 1380 1382 1383 1385 1386 1386 1386 1386 1386 1386 1386 1386 1385 1386